Flag for Mexico Weather past 2 weeks in Villahermosa, Tabasco, Mexico

Now
91 °F

Partly sunny.


Feels Like: 103 °F
Forecast: N/A
Wind: No wind

Location: Villahermosa Airport

Current Time: Sep 18, 2014 at 4:57:20 PM

Latest Report: Sep 18, 2014 at 3:47 PM


Visibility: 7 mi

Pressure: 29.78 "Hg

Humidity: 59%

Dew point: 75 °F

Location of VillahermosaLocation

Historic Weather in Villahermosa — Graph

°F

Villahermosa temperature yesterday

Maximum temperature yesterday: 88 °F (at 2:45 PM)
Minimum temperature yesterday: 75 °F (at 3:45 AM)
Average temperature yesterday: 80 °F

Past Weeks' High & Low Weather Summary

 TemperatureHumidityPressure
High95 °F (Sep 3, 4:45 PM)94% (Sep 4, 6:43 AM)30.02 "Hg (Sep 4, 6:43 AM)
Low73 °F (Sep 6, 5:44 AM)49% (Sep 4, 5:45 PM)29.77 "Hg (Sep 3, 4:45 PM)
Average81 °F81%29.90 "Hg
* Reported Sep 3 4:45 PM — Sep 18 3:47 PM, Villahermosa, Weather by CustomWeather, © 2014

Note: Actual official high and low records may vary slightly from our data, if they occured in-between our weather recording intervals... More about our weather records

Advertising

Villahermosa weather history for previous 24 hours

 ConditionsComfort  
Time TempWeatherWind HumidityBarometerVisibility
3:47 PM
Sep 18
91 °FPartly sunny.No wind59%29.78 "Hg7 mi
2:50 PM91 °FPartly sunny.No wind59%29.81 "Hg7 mi
1:57 PM91 °FScattered clouds.No wind63%29.83 "Hg7 mi
12:47 PM90 °FScattered clouds.No wind67%29.86 "Hg6 mi
11:43 AM88 °FScattered clouds.No wind75%29.90 "Hg6 mi
10:48 AM88 °FScattered clouds.No wind75%29.91 "Hg7 mi
9:47 AM84 °FScattered clouds.No wind84%29.86 "Hg7 mi
8:46 AM81 °FBroken clouds.No wind94%29.90 "Hg5 mi
7:47 AM77 °FFog.No wind94%29.89 "Hg1 mi
6:40 AM77 °FFog.No wind94%29.87 "Hg1 mi
4:51 AM77 °FPassing clouds.No wind94%29.86 "Hg7 mi
3:43 AM77 °FPassing clouds.No wind94%29.86 "Hg7 mi
11:40 PM
Sep 17
79 °FPassing clouds.No wind89%29.93 "Hg6 mi
10:43 PM79 °FPassing clouds.No wind89%29.93 "Hg6 mi
9:44 PM79 °FPassing clouds.No wind89%29.90 "Hg6 mi
7:45 PM81 °FPartly sunny.No wind79%29.86 "Hg6 mi
5:46 PM86 °FScattered clouds.No wind62%29.84 "Hg6 mi
Weather by CustomWeather, © 2014

See weather overviewHow to use our weather pages